Fargo, ND

2:58 AM CST on December 11, 2019 (GMT -0600)
Hector International

Weather History for KFAR - October, 2019

Change the Weather History Date:

Thursday, October 24, 2019

  Actual Average Record
Temperature  
Mean Temperature 34 °F 42 °F  
Max Temperature 45 °F 52 °F 78 °F (1989)
Min Temperature 22 °F 32 °F 7 °F (1887)
Degree Days  
Heating Degree Days 32 23  
Month to date heating degree days 502 430  
Since 1 July heating degree days 717 700  
Cooling Degree Days 0 0  
Month to date cooling degree days 0 0  
Year to date cooling degree days 527 548  
Moisture  
Dew Point 26 °F    
Average Humidity 73    
Maximum Humidity 92    
Minimum Humidity 45    
Precipitation  
Precipitation 0.00 in 0.06 in 0.78 in (1975)
Month to date precipitation 3.78 1.79  
Year to date precipitation 28.48 20.39  
Snow  
Snow 0.00 in 0.10 in 4.90 in (2001)
Month to date snowfall 4.5 0.4  
Since 1 July snowfall 4.5 0.4  
Since 1 September snowfall 4.5 0.4  
Snow Depth 0.00 in    
Sea Level Pressure  
Sea Level Pressure 30.31 in    
Wind  
Wind Speed 4 mph ()    
Max Wind Speed 10 mph    
Max Gust Speed 14 mph    
Visibility 10.0 miles    
Events      
T = Trace of Precipitation, MM = Missing Value Source: Averaged Metar Reports

Daily Weather History Graph

Daily Weather History Graph

Search for Another Location

Airport or City:

Astronomy

Oct. 24, 2019 Rise Set
Actual Time 7:57 AM CDT 6:24 PM CDT
Civil Twilight 7:26 AM CDT 6:55 PM CDT
Nautical Twilight 6:51 AM CDT 7:30 PM CDT
Astronomical Twilight 6:15 AM CDT 8:06 PM CDT
Moon 3:06 AM CDT (10/24) 5:12 PM CDT (10/24)
Length of Visible Light 11h 28m
Length of Day
10h 26m
Waning Crescent, 16% of the Moon is Illuminated
Oct 24
Waning Crescent
Oct 27
New
Nov 4
First Quarter
Nov 12
Full
Nov 19
Last Quarter

Hourly Weather History & Observations

Time (CDT) Temp. Windchill Dew Point Humidity Pressure Visibility Wind Dir Wind Speed Gust Speed Precip Events Conditions
12:53 AM 28.0 °F 21.7 °F 25.0 °F 88% 30.25 in 10.0 mi WNW 5.8 mph - N/A   Clear
1:53 AM 28.0 °F 22.8 °F 25.0 °F 88% 30.27 in 10.0 mi NNW 4.6 mph - N/A   Clear
2:53 AM 28.0 °F 22.8 °F 25.0 °F 88% 30.27 in 10.0 mi NNW 4.6 mph - N/A   Clear
3:53 AM 26.1 °F - 23.0 °F 88% 30.29 in 10.0 mi Calm Calm - N/A   Clear
4:53 AM 25.0 °F 19.3 °F 23.0 °F 92% 30.31 in 10.0 mi West 4.6 mph - N/A   Clear
5:53 AM 26.1 °F - 23.0 °F 88% 30.32 in 10.0 mi Calm Calm - N/A   Clear
6:53 AM 24.1 °F 18.2 °F 21.9 °F 91% 30.33 in 10.0 mi West 4.6 mph - N/A   Clear
7:53 AM 25.0 °F - 23.0 °F 92% 30.35 in 10.0 mi Calm Calm - N/A   Clear
8:53 AM 28.0 °F 21.7 °F 24.1 °F 85% 30.37 in 10.0 mi WNW 5.8 mph - N/A   Clear
9:53 AM 32.0 °F 28.7 °F 27.0 °F 82% 30.39 in 10.0 mi NW 3.5 mph - N/A   Clear
10:53 AM 36.0 °F 33.3 °F 28.0 °F 73% 30.38 in 10.0 mi WNW 3.5 mph - N/A   Clear
11:53 AM 39.0 °F 35.7 °F 25.0 °F 57% 30.38 in 10.0 mi Variable 4.6 mph - N/A   Clear
12:53 PM 39.9 °F 35.8 °F 26.1 °F 58% 30.37 in 10.0 mi SSW 5.8 mph - N/A   Clear
1:53 PM 41.0 °F 36.4 °F 25.0 °F 53% 30.35 in 10.0 mi WSW 6.9 mph - N/A   Clear
2:53 PM 43.0 °F 40.3 °F 26.1 °F 51% 30.33 in 10.0 mi SSW 4.6 mph - N/A   Clear
3:53 PM 44.1 °F 40.8 °F 25.0 °F 47% 30.32 in 10.0 mi WSW 5.8 mph - N/A   Clear
4:53 PM 44.1 °F 41.5 °F 26.1 °F 49% 30.31 in 10.0 mi SSW 4.6 mph - N/A   Partly Cloudy
5:53 PM 42.1 °F 37.7 °F 27.0 °F 55% 30.29 in 10.0 mi SSW 6.9 mph - N/A   Clear
6:53 PM 39.9 °F 35.8 °F 26.1 °F 58% 30.28 in 10.0 mi SSE 5.8 mph - N/A   Clear
7:53 PM 41.0 °F 36.4 °F 28.0 °F 60% 30.29 in 10.0 mi South 6.9 mph - N/A   Overcast
8:53 PM 41.0 °F 35.8 °F 28.9 °F 62% 30.28 in 10.0 mi South 8.1 mph - N/A   Overcast
9:53 PM 37.0 °F 30.4 °F 28.9 °F 73% 30.27 in 10.0 mi South 9.2 mph - N/A   Clear
10:53 PM 35.1 °F 27.9 °F 28.9 °F 78% 30.26 in 10.0 mi South 9.2 mph - N/A   Clear
11:53 PM 32.0 °F 24.8 °F 28.0 °F 85% 30.26 in 10.0 mi South 8.1 mph - N/A   Clear